Location: Houston
(29.7630°N, 95.3630°W)
Time: 14:53:58
(UTC-05:00)

ISS - All Passes

Search period start: 30 September 2014 00:00
Search period end: 10 October 2014 00:00
Orbit: 413 x 416 km, 51.6° (Epoch: 30 September)

Date Brightness Start Highest point End Pass type
(mag) Time Alt. Az. Time Alt. Az. Time Alt. Az.
30 Sep - 05:24:52 10° N 05:26:13 12° NE 05:27:34 10° ENE visible
30 Sep - 06:59:54 10° NW 07:03:09 56° SW 07:06:24 10° SSE daylight
30 Sep - 22:00:55 10° SW 22:04:14 83° SE 22:07:33 10° NE night (unlit)
01 Oct - 06:10:49 10° NW 06:14:06 64° NE 06:17:23 10° SE visible
01 Oct - 21:12:07 10° SSW 21:15:12 36° SE 21:18:17 10° ENE night (unlit)
01 Oct - 22:49:52 10° WNW 22:51:59 16° NW 22:54:06 10° N night (unlit)
02 Oct - 05:21:58 10° NNW 05:24:58 31° NE 05:27:57 10° ESE visible
02 Oct - 06:59:25 10° W 07:01:25 15° SW 07:03:25 10° SSW daylight
02 Oct - 20:23:54 10° S 20:26:12 18° SE 20:28:32 10° E visible
02 Oct - 21:59:50 10° WSW 22:02:43 27° NW 22:05:37 10° NNE night (unlit)
03 Oct - 04:33:23 10° N 04:35:43 18° NE 04:38:02 10° E visible
03 Oct - 06:09:28 10° WNW 06:12:26 31° SW 06:15:23 10° SSE visible
03 Oct - 21:10:16 10° WSW 21:13:31 54° NW 21:16:47 10° NE visible
04 Oct - 03:45:37 10° NNE 03:46:22 11° NNE 03:47:06 10° NE night (unlit)
04 Oct - 05:20:04 10° NW 05:23:22 69° SW 05:26:38 10° SE visible
04 Oct - 20:21:05 10° SW 20:24:22 68° SE 20:27:40 10° NE visible
04 Oct - 22:00:31 10° NW 22:01:21 11° NNW 22:02:12 10° NNW visible
05 Oct - 04:30:57 10° NW 04:34:12 53° NE 04:37:26 10° ESE night (unlit)
05 Oct - 19:32:19 10° SSW 19:35:16 30° SE 19:38:13 10° ENE visible
05 Oct - 21:09:36 10° W 21:11:58 18° NW 21:14:20 10° N visible
06 Oct - 03:42:04 10° NNW 03:44:57 27° NE 03:47:48 10° E night (unlit)
06 Oct - 05:19:07 10° W 05:21:27 18° SW 05:23:47 10° S night (unlit)
06 Oct - 18:44:13 10° SSE 18:46:11 15° SE 18:48:10 10° E daylight
06 Oct - 20:19:37 10° WSW 20:22:38 32° NW 20:25:39 10° NNE visible
07 Oct - 02:53:30 10° N 02:55:35 15° NE 02:57:39 10° ENE night (unlit)
07 Oct - 04:29:16 10° WNW 04:32:22 37° SW 04:35:26 10° SSE night (unlit)
07 Oct - 19:30:04 10° SW 19:33:21 66° NW 19:36:40 10° NE visible
08 Oct - 03:39:52 10° NW 03:43:11 85° SW 03:46:29 10° SE night (unlit)
08 Oct - 18:40:53 10° SSW 18:44:08 54° SE 18:47:23 10° NE daylight
08 Oct - 20:19:36 10° WNW 20:21:02 12° NW 20:22:29 10° N visible
09 Oct - 02:50:43 10° NNW 02:53:55 43° NE 02:57:05 10° ESE night (unlit)
09 Oct - 04:29:30 10° WSW 04:30:14 11° SW 04:30:59 10° SW night (unlit)
09 Oct - 17:52:10 10° S 17:54:57 25° SE 17:57:44 10° ENE daylight
09 Oct - 19:29:00 10° W 19:31:34 21° NW 19:34:09 10° NNE visible
